Weather in Bolyshevo

Russia / Smolensk Oblast     55°34′33″N   33°35′30″E
temp.,
°C
wind,
m/s
gust,
m/s
humid.,
%
clouds,
%
prec.,
mm/h
press.,
hPa
HPBL,
m
22 april, thu
thu2200:00+3ssw39935 0.0 1010186
03:00+3ssw41093100 0.0 1010247
06:00+3ssw41095100 0.1 1010258
09:00+8ssw588172 0.3 1011401
12:00+13sw685429 0.1 10111528
15:00+14ssw575041 0.4 10111805
18:00+12ssw576669 0.9 1010999
21:00+8s398812 1.9 1011173
23 april, fri
fri2300:00+7s411895 0.0 1010270
03:00+6s6139385 0.0 1009468
06:00+5wnw4791100 1.2 1010407
09:00+5sw4791100 5.4 1011625
12:00+8sw696075 0.1 10111775
15:00+9sw695297 0.2 10121888
18:00+8sw4755100 0.0 10111140
21:00+5w2669100 0.1 1012169
24 april, sat
sat2400:00+3w257590 0.0 1011144
03:00+1w2683100 0.0 1010143
06:000w369556 0.0 1010217
09:00+4wnw457378 0.0 1009924
12:00+5w4553100 0.1 10091634
15:00+7w5646100 0.4 10091867
18:00+6w56485 0.0 10091828
21:00+2wsw387296 0.0 1010326
25 april, sun
sun2500:00+1wsw398540 0.0 1010292
03:00−1sw3890100 0.0 1010235
06:000sw498898 0.0 1010566
09:00+2wsw686888 0.0 10101209
12:00+3wsw7982100 0.3 10101049
15:00+3wsw7966100 0.7 10111426
18:00+4sw6960100 0.1 10111413
21:000ssw49825 0.1 1011241
26 april, mon
mon2600:000sw4118521 0.0 1011397
03:00−1sw399487 0.0 1012289
06:00−1sw3888100 0.0 1012329
09:00+3sw577077 0.0 10111048
12:00+4wsw5658100 0.4 10111521
15:00+6wsw565093 1.0 10101614
18:00+5w455415 0.4 10091448
21:00+1w338033 0.5 100950